Prime Hook, DE DE USA current weather conditions

sailwx.info

Wind from 065 at 3 knots gusting 6

Last reported at 2020-Aug-08 11:05 UTC.
Time now 2020-Aug-08 11:40 UTC

Location: N 38°50' W 075°15'.
View on Google Maps.

See reports from other nearby stations

  
Tides and Currents Weather Stations Pressure Air Temp Water Temp Dewpoint Dewpoint Depression Visibility Wind Speed Wind Dir Waves Ship Positions
date/time (UTC)wind fromknots sea level pressurealtimeterstation pressurevisibilityair tempwater tempwave heightnotes
2020-Aug-08 11:05 065 3 gusting 6
2020-Aug-08 11:00 069 3 gusting 4
2020-Aug-08 10:55 066 3 gusting 6
2020-Aug-08 10:50 084 1 gusting 4
2020-Aug-08 10:45 098 2 gusting 5
2020-Aug-08 10:40 094 2 gusting 5
2020-Aug-08 10:35 080 3 gusting 6
2020-Aug-08 10:30 072 3 gusting 6
2020-Aug-08 10:25 075 4 gusting 6
2020-Aug-08 10:20 073 4 gusting 7
2020-Aug-08 10:15 065 4 gusting 6
2020-Aug-08 10:10 072 4 gusting 7
2020-Aug-08 10:05 072 3 gusting 6
2020-Aug-08 10:00 077 3 gusting 5
2020-Aug-08 09:55 077 3 gusting 7
2020-Aug-08 09:50 073 3 gusting 6
2020-Aug-08 09:45 074 3 gusting 6
2020-Aug-08 09:40 078 4 gusting 8
2020-Aug-08 09:35 069 4 gusting 8
2020-Aug-08 09:30 071 4 gusting 7
2020-Aug-08 09:25 074 4 gusting 7
2020-Aug-08 09:20 073 4 gusting 9
2020-Aug-08 09:15 072 4 gusting 7
2020-Aug-08 09:10 069 5 gusting 10
2020-Aug-08 09:05 066 4 gusting 7
2020-Aug-08 09:00 068 4 gusting 7
2020-Aug-08 08:55 071 5 gusting 8
2020-Aug-08 08:50 074 3 gusting 7
2020-Aug-08 08:45 064 4 gusting 7
2020-Aug-08 08:40 071 5 gusting 9
2020-Aug-08 08:35 061 4 gusting 9
2020-Aug-08 08:30 022 3 gusting 5
2020-Aug-08 08:25 025 2 gusting 4
2020-Aug-08 08:20 021 4 gusting 7
2020-Aug-08 08:15 018 3 gusting 6
2020-Aug-08 08:10 013 3 gusting 6
2020-Aug-08 08:05 010 2 gusting 5
2020-Aug-08 08:00 013 1 gusting 4
2020-Aug-08 07:55 021 1 gusting 4
2020-Aug-08 07:50 034 2 gusting 3
2020-Aug-08 07:45 028 1 gusting 4
2020-Aug-08 07:40 016 2 gusting 5
2020-Aug-08 07:35 332 1 gusting 2
2020-Aug-08 07:30 024 1 gusting 3
2020-Aug-08 07:25 034 1 gusting 3
2020-Aug-08 07:20 009 1 gusting 5
2020-Aug-08 07:15 356 2 gusting 5
2020-Aug-08 07:10 352 1 gusting 4
2020-Aug-08 07:05 344 3 gusting 4
2020-Aug-08 07:00 319 4 gusting 6
2020-Aug-08 06:55 338 3 gusting 5
2020-Aug-08 06:50 325 3 gusting 5
2020-Aug-08 06:45 336 4 gusting 7
2020-Aug-08 06:40 306 2 gusting 5
2020-Aug-08 06:35 211 1 gusting 2
2020-Aug-08 06:30 231 2 gusting 4
2020-Aug-08 06:25 217 2 gusting 5
2020-Aug-08 06:20 209 2 gusting 5
2020-Aug-08 06:15 212 2 gusting 4
2020-Aug-08 06:10 237 2 gusting 4
2020-Aug-08 06:05 226 1 gusting 3
2020-Aug-08 06:00 217 2 gusting 4
2020-Aug-08 05:55 250 2 gusting 4
2020-Aug-08 05:50 266 2 gusting 4
2020-Aug-08 05:45 254 2 gusting 4
2020-Aug-08 05:40 245 2 gusting 5
2020-Aug-08 05:35 236 3 gusting 6
2020-Aug-08 05:30 210 3 gusting 7
2020-Aug-08 05:25 202 3 gusting 7
2020-Aug-08 05:20 202 4 gusting 6
2020-Aug-08 05:15 203 4 gusting 9
2020-Aug-08 05:10 214 4 gusting 7
2020-Aug-08 05:05 204 3 gusting 6
2020-Aug-08 05:00 206 2 gusting 5
2020-Aug-08 04:55 233 2 gusting 4
2020-Aug-08 04:50 260 2 gusting 5
2020-Aug-08 04:45 210 2 gusting 4
2020-Aug-08 04:40 207 1 gusting 4
2020-Aug-08 04:35 246 2 gusting 5
2020-Aug-08 04:30 229 3 gusting 5
2020-Aug-08 04:25 221 2 gusting 6
2020-Aug-08 04:20 269 3 gusting 6
2020-Aug-08 04:15 218 2 gusting 4
2020-Aug-08 04:10 214 2 gusting 5
2020-Aug-08 04:05 240 3 gusting 5
2020-Aug-08 04:00 229 2 gusting 4
2020-Aug-08 03:55 245 1 gusting 4
2020-Aug-08 03:50 261 1 gusting 2
2020-Aug-08 03:45 259 1 gusting 2
2020-Aug-08 03:40 271 1 gusting 3
2020-Aug-08 03:35 275 2 gusting 3
2020-Aug-08 03:30 224 2 gusting 3
2020-Aug-08 03:25 180 3 gusting 4
2020-Aug-08 03:20 157 3 gusting 4
2020-Aug-08 03:15 169 3 gusting 5
2020-Aug-08 03:10 123 1 gusting 2
2020-Aug-08 03:05 127 1 gusting 3
2020-Aug-08 03:00 158 0 gusting 2
2020-Aug-08 02:55 142 2 gusting 4
2020-Aug-08 02:50 153 1 gusting 3
2020-Aug-08 02:45 122 2 gusting 4
2020-Aug-08 02:40 137 2 gusting 6
2020-Aug-08 02:35 130 3 gusting 7
2020-Aug-08 02:30 141 3 gusting 7
2020-Aug-08 02:25 152 3 gusting 5
2020-Aug-08 02:20 145 4 gusting 7
2020-Aug-08 02:15 143 5 gusting 8
2020-Aug-08 02:10 159 5 gusting 9
2020-Aug-08 02:05 150 2 gusting 5
2020-Aug-08 02:00 107 2 gusting 4
2020-Aug-08 01:55 075 2 gusting 5
2020-Aug-08 01:50 084 3 gusting 5
2020-Aug-08 01:45 079 4 gusting 7
2020-Aug-08 01:40 071 4 gusting 7
2020-Aug-08 01:35 065 4 gusting 6
2020-Aug-08 01:30 065 4 gusting 8
2020-Aug-08 01:25 074 6 gusting 10
2020-Aug-08 01:20 064 5 gusting 9
2020-Aug-08 01:15 023 6 gusting 14
2020-Aug-08 01:10 001 4 gusting 8
2020-Aug-08 01:05 269 5 gusting 11
2020-Aug-08 01:00 199 4 gusting 8
2020-Aug-08 00:55 148 4 gusting 9
2020-Aug-08 00:50 151 5 gusting 8
2020-Aug-08 00:45 138 3 gusting 6
2020-Aug-08 00:40 146 3 gusting 5
2020-Aug-08 00:35 117 3 gusting 6
2020-Aug-08 00:30 188 2 gusting 3
2020-Aug-08 00:25 145 1 gusting 3
2020-Aug-08 00:20 135 2 gusting 5
2020-Aug-08 00:15 107 1 gusting 2
2020-Aug-08 00:10 158 3 gusting 8
2020-Aug-08 00:05 175 3 gusting 7
2020-Aug-08 00:00 121 3 gusting 6
2020-Aug-07 23:55 133 3 gusting 7
2020-Aug-07 23:50 126 3 gusting 5
2020-Aug-07 23:45 132 3 gusting 7
2020-Aug-07 23:40 126 3 gusting 7
2020-Aug-07 23:35 119 2 gusting 9
2020-Aug-07 23:30 132 3 gusting 6
2020-Aug-07 23:25 132 2 gusting 6
2020-Aug-07 23:20 121 3 gusting 6
2020-Aug-07 23:15 126 3 gusting 6
2020-Aug-07 23:10 118 3 gusting 7
2020-Aug-07 23:05 114 3 gusting 7
2020-Aug-07 23:00 111 3 gusting 7
2020-Aug-07 22:55 121 3 gusting 9
2020-Aug-07 22:50 114 4 gusting 7
2020-Aug-07 22:45 117 3 gusting 9
2020-Aug-07 22:40 113 3 gusting 7
2020-Aug-07 22:35 106 4 gusting 9
2020-Aug-07 22:30 110 4 gusting 10
2020-Aug-07 22:25 111 4 gusting 9
2020-Aug-07 22:20 112 3 gusting 6
2020-Aug-07 22:15 107 4 gusting 8
2020-Aug-07 22:10 107 4 gusting 9
2020-Aug-07 22:05 114 3 gusting 9
2020-Aug-07 22:00 113 5 gusting 9
2020-Aug-07 21:55 108 4 gusting 8
2020-Aug-07 21:50 110 5 gusting 9
2020-Aug-07 21:45 110 4 gusting 9
2020-Aug-07 21:40 111 4 gusting 10
2020-Aug-07 21:35 103 5 gusting 10
2020-Aug-07 21:30 109 6 gusting 9
2020-Aug-07 21:25 104 5 gusting 9
2020-Aug-07 21:20 108 6 gusting 10
2020-Aug-07 21:15 118 5 gusting 10
2020-Aug-07 21:10 105 4 gusting 8
2020-Aug-07 21:05 111 5 gusting 10
2020-Aug-07 21:00 109 6 gusting 12
2020-Aug-07 20:55 112 6 gusting 12
2020-Aug-07 20:50 111 5 gusting 12
2020-Aug-07 20:45 111 6 gusting 12
2020-Aug-07 20:40 108 5 gusting 13
2020-Aug-07 20:35 106 5 gusting 10
2020-Aug-07 20:30 106 4 gusting 10
2020-Aug-07 20:25 107 4 gusting 10
2020-Aug-07 20:20 108 4 gusting 9
2020-Aug-07 20:15 093 6 gusting 10
2020-Aug-07 20:10 091 5 gusting 10
2020-Aug-07 20:05 092 5 gusting 9
2020-Aug-07 20:00 089 6 gusting 11
2020-Aug-07 19:55 087 5 gusting 9
2020-Aug-07 19:50 086 5 gusting 9
2020-Aug-07 19:45 091 4 gusting 8
2020-Aug-07 19:40 088 4 gusting 8
2020-Aug-07 19:35 090 5 gusting 9
2020-Aug-07 19:30 084 5 gusting 8
2020-Aug-07 19:25 088 5 gusting 9
2020-Aug-07 19:20 080 5 gusting 10
2020-Aug-07 19:15 083 5 gusting 8
2020-Aug-07 19:10 086 4 gusting 8
2020-Aug-07 19:05 091 5 gusting 9
2020-Aug-07 19:00 082 4 gusting 8
2020-Aug-07 18:55 090 4 gusting 7
2020-Aug-07 18:50 086 4 gusting 8
2020-Aug-07 18:45 087 4 gusting 7
2020-Aug-07 18:40 085 4 gusting 9
2020-Aug-07 18:35 119 4 gusting 6
2020-Aug-07 18:30 114 4 gusting 6
2020-Aug-07 18:25 105 3 gusting 7
2020-Aug-07 18:20 088 4 gusting 7
2020-Aug-07 18:15 088 5 gusting 8
2020-Aug-07 18:10 089 5 gusting 8
2020-Aug-07 18:05 083 4 gusting 7
2020-Aug-07 18:00 090 4 gusting 6
2020-Aug-07 17:55 084 4 gusting 7
2020-Aug-07 17:50 081 3 gusting 6
2020-Aug-07 17:45 079 3 gusting 6
2020-Aug-07 17:40 057 4 gusting 6
2020-Aug-07 17:35 087 3 gusting 6
2020-Aug-07 17:30 085 4 gusting 7
2020-Aug-07 17:25 096 4 gusting 7
2020-Aug-07 17:20 093 4 gusting 6
2020-Aug-07 17:15 084 3 gusting 6
2020-Aug-07 17:10 094 2 gusting 4
2020-Aug-07 17:05 086 4 gusting 6
2020-Aug-07 17:00 080 3 gusting 7
2020-Aug-07 16:55 082 5 gusting 8
2020-Aug-07 16:50 090 3 gusting 6
2020-Aug-07 16:45 101 4 gusting 7
2020-Aug-07 16:40 086 4 gusting 8
2020-Aug-07 16:35 080 3 gusting 9
2020-Aug-07 16:30 104 3 gusting 6
2020-Aug-07 16:25 090 3 gusting 6
2020-Aug-07 16:20 080 2 gusting 5
2020-Aug-07 16:15 095 2 gusting 5
2020-Aug-07 16:10 091 2 gusting 5
2020-Aug-07 16:05 085 3 gusting 5
2020-Aug-07 16:00 100 2 gusting 6
2020-Aug-07 15:55 105 2 gusting 4
2020-Aug-07 15:50 084 3 gusting 6
2020-Aug-07 15:45 096 4 gusting 7
2020-Aug-07 15:40 079 3 gusting 5
2020-Aug-07 15:35 088 4 gusting 6
2020-Aug-07 15:30 077 3 gusting 6
2020-Aug-07 15:25 084 3 gusting 5
2020-Aug-07 15:20 078 4 gusting 6
2020-Aug-07 15:15 070 3 gusting 6
2020-Aug-07 15:10 073 3 gusting 5
2020-Aug-07 15:05 068 2 gusting 4
2020-Aug-07 15:00 094 3 gusting 5
2020-Aug-07 14:55 097 3 gusting 5
2020-Aug-07 14:50 085 3 gusting 5
2020-Aug-07 14:45 089 4 gusting 6
2020-Aug-07 14:40 078 4 gusting 5
2020-Aug-07 14:35 088 3 gusting 5
2020-Aug-07 14:30 102 3 gusting 5
2020-Aug-07 14:25 100 2 gusting 4
2020-Aug-07 14:20 088 3 gusting 5
2020-Aug-07 14:15 091 3 gusting 5
2020-Aug-07 14:10 158 2 gusting 4
2020-Aug-07 14:05 169 3 gusting 5
2020-Aug-07 14:00 095 2 gusting 4
2020-Aug-07 13:55 130 1 gusting 3
2020-Aug-07 13:50 127 3 gusting 6
2020-Aug-07 13:45 108 2 gusting 4
2020-Aug-07 13:40 102 2 gusting 5
2020-Aug-07 13:35 094 2 gusting 4
2020-Aug-07 13:30 082 2 gusting 4
2020-Aug-07 13:25 104 2 gusting 5
2020-Aug-07 13:20 100 2 gusting 4
2020-Aug-07 13:15 099 1 gusting 3
2020-Aug-07 13:10 093 1 gusting 4
2020-Aug-07 13:05 122 1 gusting 2
2020-Aug-07 13:00 125 1 gusting 3
2020-Aug-07 12:55 124 1 gusting 2
2020-Aug-07 12:50 090 2 gusting 4
2020-Aug-07 12:45 108 1 gusting 3
2020-Aug-07 12:40 087 2 gusting 3
2020-Aug-07 12:35 083 2 gusting 4
2020-Aug-07 12:30 071 0 gusting 2
2020-Aug-07 12:25 187 0 gusting 2
2020-Aug-07 12:20 189 1 gusting 2
2020-Aug-07 12:15 188 2 gusting 3
2020-Aug-07 12:10 181 2 gusting 4
2020-Aug-07 12:05 170 1 gusting 3
2020-Aug-07 12:00 144 1 gusting 2
2020-Aug-07 11:55 151 1 gusting 3
2020-Aug-07 11:50 203 1 gusting 2
2020-Aug-07 11:45 172 0 gusting 2
2020-Aug-07 11:40 188 1 gusting 2
2020-Aug-07 11:35 179 2 gusting 2
2020-Aug-07 11:30 157 0 gusting 1
2020-Aug-07 11:25 175 1 gusting 1
2020-Aug-07 11:20 192 1 gusting 2
2020-Aug-07 11:15 166 1 gusting 2
2020-Aug-07 11:10 184 1 gusting 2
2020-Aug-07 11:05 174 2 gusting 2
2020-Aug-07 11:00 169 1 gusting 2
2020-Aug-07 10:55 147 0 gusting 1
2020-Aug-07 10:50 152 0 gusting 1
2020-Aug-07 10:45 173 0 gusting 1
2020-Aug-07 10:40 208 0 gusting 1
2020-Aug-07 10:35 244 0 gusting 1
2020-Aug-07 10:30 142 1 gusting 2
2020-Aug-07 10:25 137 1 gusting 3
2020-Aug-07 10:20 148 1 gusting 3
2020-Aug-07 10:15 145 1 gusting 3
2020-Aug-07 10:10 129 1 gusting 3
2020-Aug-07 10:05 140 2 gusting 3
2020-Aug-07 10:00 153 3 gusting 4
2020-Aug-07 09:55 154 3 gusting 5
2020-Aug-07 09:50 146 1 gusting 2
2020-Aug-07 09:45 147 1 gusting 3
2020-Aug-07 09:40 109 1 gusting 2
2020-Aug-07 09:35 098 1 gusting 2
2020-Aug-07 09:30 135 0 gusting 2
2020-Aug-07 09:25 148 1 gusting 2
2020-Aug-07 09:20 152 0 gusting 2
2020-Aug-07 09:15 134 0 gusting 2
2020-Aug-07 09:10 137 1 gusting 2
2020-Aug-07 09:05 135 1 gusting 2
2020-Aug-07 09:00 153 1 gusting 4
2020-Aug-07 08:55 151 2 gusting 5
2020-Aug-07 08:50 135 1 gusting 4
2020-Aug-07 08:45 128 1 gusting 3
2020-Aug-07 08:40 132 1 gusting 3
2020-Aug-07 08:35 142 1 gusting 3
2020-Aug-07 08:30 161 0 gusting 3
2020-Aug-07 08:25 137 0 gusting 1
2020-Aug-07 08:20 124 1 gusting 4
2020-Aug-07 08:15 146 2 gusting 4
2020-Aug-07 08:10 138 0 gusting 2
2020-Aug-07 08:05 123 0 gusting 1
2020-Aug-07 08:00 149 1 gusting 2
2020-Aug-07 07:55 142 0 gusting 1
2020-Aug-07 07:50 147 1 gusting 2
2020-Aug-07 07:45 144 1 gusting 2
2020-Aug-07 07:40 156 0 gusting 1
2020-Aug-07 07:35 157 1 gusting 2
2020-Aug-07 07:30 147 1 gusting 2
2020-Aug-07 07:25 146 0 gusting 2
2020-Aug-07 07:20 133 1 gusting 2
2020-Aug-07 07:15 092 1 gusting 2
2020-Aug-07 07:10 115 1 gusting 3
2020-Aug-07 07:05 121 1 gusting 3
2020-Aug-07 07:00 095 1 gusting 3
2020-Aug-07 06:55 100 1 gusting 4
2020-Aug-07 06:50 105 2 gusting 5
2020-Aug-07 06:45 075 2 gusting 5
2020-Aug-07 06:40 114 1 gusting 2
2020-Aug-07 06:35 120 1 gusting 4
2020-Aug-07 06:30 126 2 gusting 4
2020-Aug-07 06:25 128 2 gusting 4
2020-Aug-07 06:20 120 2 gusting 7
2020-Aug-07 06:15 131 2 gusting 4
2020-Aug-07 06:10 141 2 gusting 4
2020-Aug-07 06:05 135 2 gusting 4
2020-Aug-07 06:00 128 2 gusting 3
2020-Aug-07 05:55 106 1 gusting 2
2020-Aug-07 05:50 096 0 gusting 2
2020-Aug-07 05:45 107 2 gusting 3
2020-Aug-07 05:40 131 1 gusting 3
2020-Aug-07 05:35 126 1 gusting 3
2020-Aug-07 05:30 117 2 gusting 4
2020-Aug-07 05:25 154 1 gusting 3
2020-Aug-07 05:20 140 2 gusting 4
2020-Aug-07 05:15 141 1 gusting 3
2020-Aug-07 05:10 140 1 gusting 3
2020-Aug-07 05:05 126 2 gusting 4
2020-Aug-07 05:00 131 1 gusting 3
2020-Aug-07 04:55 130 1 gusting 4
2020-Aug-07 04:50 133 2 gusting 5
2020-Aug-07 04:45 116 2 gusting 7
2020-Aug-07 04:40 118 3 gusting 7
2020-Aug-07 04:35 119 3 gusting 6
2020-Aug-07 04:30 112 5 gusting 10
2020-Aug-07 04:25 117 4 gusting 7
2020-Aug-07 04:20 119 3 gusting 8
2020-Aug-07 04:15 109 3 gusting 6
2020-Aug-07 04:10 111 3 gusting 7
2020-Aug-07 04:05 098 3 gusting 6
2020-Aug-07 04:00 089 3 gusting 6
2020-Aug-07 03:55 095 3 gusting 5
2020-Aug-07 03:50 072 3 gusting 6
2020-Aug-07 03:45 090 3 gusting 6
2020-Aug-07 03:40 103 2 gusting 6
2020-Aug-07 03:35 108 2 gusting 5
2020-Aug-07 03:30 099 2 gusting 5
2020-Aug-07 03:25 105 2 gusting 5
2020-Aug-07 03:20 107 2 gusting 4
2020-Aug-07 03:15 091 2 gusting 3
2020-Aug-07 03:10 088 1 gusting 3
2020-Aug-07 03:05 088 1 gusting 3
2020-Aug-07 03:00 080 2 gusting 3
2020-Aug-07 02:55 090 1 gusting 2
2020-Aug-07 02:50 087 1 gusting 3
2020-Aug-07 02:45 085 1 gusting 4
2020-Aug-07 02:40 093 1 gusting 3
2020-Aug-07 02:35 094 2 gusting 4
2020-Aug-07 02:30 085 3 gusting 5
2020-Aug-07 02:25 084 3 gusting 5
2020-Aug-07 02:20 095 2 gusting 5
2020-Aug-07 02:15 083 2 gusting 5
2020-Aug-07 02:10 075 3 gusting 5
2020-Aug-07 02:05 083 3 gusting 4
2020-Aug-07 02:00 098 2 gusting 4
2020-Aug-07 01:55 121 1 gusting 4
2020-Aug-07 01:50 137 1 gusting 3
2020-Aug-07 01:45 110 1 gusting 3
2020-Aug-07 01:40 114 2 gusting 4
2020-Aug-07 01:35 114 2 gusting 4
2020-Aug-07 01:30 122 1 gusting 5
2020-Aug-07 01:25 138 1 gusting 3
2020-Aug-07 01:20 120 1 gusting 3
2020-Aug-07 01:15 122 1 gusting 3
2020-Aug-07 01:10 111 2 gusting 4
2020-Aug-07 01:05 118 1 gusting 3
2020-Aug-07 01:00 126 1 gusting 2
2020-Aug-07 00:55 137 1 gusting 2
2020-Aug-07 00:50 161 1 gusting 2
2020-Aug-07 00:45 144 1 gusting 3
2020-Aug-07 00:40 132 2 gusting 5
2020-Aug-07 00:35 135 2 gusting 3
2020-Aug-07 00:30 128 1 gusting 5
2020-Aug-07 00:25 144 1 gusting 3
2020-Aug-07 00:20 124 1 gusting 3
2020-Aug-07 00:15 112 2 gusting 5
2020-Aug-07 00:10 136 1 gusting 2
2020-Aug-07 00:05 130 1 gusting 4
2020-Aug-07 00:00 103 2 gusting 4
2020-Aug-06 23:55 127 2 gusting 4
2020-Aug-06 23:50 107 3 gusting 6
2020-Aug-06 23:45 110 2 gusting 5
2020-Aug-06 23:40 119 2 gusting 4
2020-Aug-06 23:35 105 2 gusting 5
2020-Aug-06 23:30 117 2 gusting 5
2020-Aug-06 23:25 108 2 gusting 5
2020-Aug-06 23:20 128 2 gusting 4
2020-Aug-06 23:15 136 2 gusting 5
2020-Aug-06 23:10 119 1 gusting 3
2020-Aug-06 23:05 132 2 gusting 4
2020-Aug-06 23:00 123 2 gusting 5
2020-Aug-06 22:55 119 2 gusting 5
2020-Aug-06 22:50 118 2 gusting 5
2020-Aug-06 22:45 101 3 gusting 7
2020-Aug-06 22:40 108 2 gusting 4
2020-Aug-06 22:35 116 2 gusting 5
2020-Aug-06 22:30 122 2 gusting 5
2020-Aug-06 22:25 113 3 gusting 7
2020-Aug-06 22:20 131 2 gusting 6
2020-Aug-06 22:15 112 2 gusting 6
2020-Aug-06 22:10 105 3 gusting 5
2020-Aug-06 22:05 113 3 gusting 8
2020-Aug-06 22:00 110 4 gusting 8
2020-Aug-06 21:55 114 2 gusting 7
2020-Aug-06 21:50 105 3 gusting 6
2020-Aug-06 21:45 110 2 gusting 5
2020-Aug-06 21:40 112 2 gusting 5
2020-Aug-06 21:35 105 3 gusting 7
2020-Aug-06 21:30 100 3 gusting 8
2020-Aug-06 21:25 099 4 gusting 8
2020-Aug-06 21:20 095 3 gusting 8
2020-Aug-06 21:15 102 4 gusting 8
2020-Aug-06 21:10 100 3 gusting 7
2020-Aug-06 21:05 110 3 gusting 7
2020-Aug-06 21:00 092 4 gusting 9
2020-Aug-06 20:55 094 4 gusting 8
2020-Aug-06 20:50 094 4 gusting 8
2020-Aug-06 20:45 095 5 gusting 10
2020-Aug-06 20:40 091 4 gusting 9
2020-Aug-06 20:35 095 5 gusting 9
2020-Aug-06 20:30 089 5 gusting 10
2020-Aug-06 20:25 095 5 gusting 8
2020-Aug-06 20:20 106 4 gusting 8
2020-Aug-06 20:15 120 2 gusting 9
2020-Aug-06 20:10 105 3 gusting 8
2020-Aug-06 20:05 106 4 gusting 8
2020-Aug-06 20:00 097 4 gusting 8
2020-Aug-06 19:55 101 4 gusting 8
2020-Aug-06 19:50 109 4 gusting 8
2020-Aug-06 19:45 109 4 gusting 10
2020-Aug-06 19:40 101 3 gusting 7
2020-Aug-06 19:35 112 4 gusting 9
2020-Aug-06 19:30 102 5 gusting 9
2020-Aug-06 19:25 093 4 gusting 9
2020-Aug-06 19:20 096 5 gusting 9
2020-Aug-06 19:15 103 4 gusting 8
2020-Aug-06 19:10 099 5 gusting 9
2020-Aug-06 19:05 098 5 gusting 10
2020-Aug-06 19:00 093 5 gusting 10
2020-Aug-06 18:55 097 5 gusting 11
2020-Aug-06 18:50 097 5 gusting 9
2020-Aug-06 18:45 103 4 gusting 9
2020-Aug-06 18:40 097 5 gusting 10
2020-Aug-06 18:35 099 4 gusting 9
2020-Aug-06 18:30 093 4 gusting 10
2020-Aug-06 18:25 096 5 gusting 9
2020-Aug-06 18:20 105 5 gusting 10
2020-Aug-06 18:15 092 5 gusting 11
2020-Aug-06 18:10 101 5 gusting 10
2020-Aug-06 18:05 098 5 gusting 12
2020-Aug-06 18:00 089 7 gusting 11
2020-Aug-06 17:55 099 4 gusting 9
2020-Aug-06 17:50 105 4 gusting 10
2020-Aug-06 17:45 098 5 gusting 10
2020-Aug-06 17:40 100 6 gusting 10
2020-Aug-06 17:35 100 6 gusting 11
2020-Aug-06 17:30 107 6 gusting 10
2020-Aug-06 17:25 107 5 gusting 10
2020-Aug-06 17:20 098 6 gusting 12
2020-Aug-06 17:15 102 5 gusting 10
2020-Aug-06 17:10 103 5 gusting 10
2020-Aug-06 17:05 107 4 gusting 7
2020-Aug-06 17:00 103 4 gusting 9
2020-Aug-06 16:55 101 4 gusting 9
2020-Aug-06 16:50 093 5 gusting 9
2020-Aug-06 16:45 089 7 gusting 12
2020-Aug-06 16:40 098 4 gusting 10
2020-Aug-06 16:35 093 5 gusting 10
2020-Aug-06 16:30 086 6 gusting 10
2020-Aug-06 16:25 091 6 gusting 10
2020-Aug-06 16:20 078 6 gusting 10
2020-Aug-06 16:15 089 7 gusting 10
2020-Aug-06 16:10 084 5 gusting 8
2020-Aug-06 16:05 087 5 gusting 9
2020-Aug-06 16:00 099 4 gusting 9
2020-Aug-06 15:55 094 5 gusting 10
2020-Aug-06 15:50 090 5 gusting 9
2020-Aug-06 15:45 088 5 gusting 9
2020-Aug-06 15:40 092 6 gusting 10
2020-Aug-06 15:35 095 5 gusting 10
2020-Aug-06 15:30 093 6 gusting 10
2020-Aug-06 15:25 084 6 gusting 9
2020-Aug-06 15:20 085 5 gusting 10
2020-Aug-06 15:15 087 5 gusting 9
2020-Aug-06 15:10 087 4 gusting 8
2020-Aug-06 15:05 089 6 gusting 10
2020-Aug-06 15:00 096 5 gusting 10
2020-Aug-06 14:55 095 4 gusting 8
2020-Aug-06 14:50 094 4 gusting 8
2020-Aug-06 14:45 105 4 gusting 7
2020-Aug-06 14:40 108 3 gusting 6
2020-Aug-06 14:35 091 2 gusting 6
2020-Aug-06 14:30 112 2 gusting 4
2020-Aug-06 14:25 123 1 gusting 3
2020-Aug-06 14:20 134 2 gusting 5
2020-Aug-06 14:15 133 3 gusting 5
2020-Aug-06 14:10 143 3 gusting 6
2020-Aug-06 14:05 113 3 gusting 6
2020-Aug-06 14:00 099 4 gusting 7
2020-Aug-06 13:55 105 2 gusting 5
2020-Aug-06 13:50 097 3 gusting 6
2020-Aug-06 13:45 083 3 gusting 5
2020-Aug-06 13:40 090 3 gusting 5
2020-Aug-06 13:35 078 4 gusting 6
2020-Aug-06 13:30 106 2 gusting 5
2020-Aug-06 13:25 191 0 gusting 1
2020-Aug-06 13:20 169 1 gusting 2
2020-Aug-06 13:15 158 1 gusting 1
2020-Aug-06 13:10 220 0 gusting 0
2020-Aug-06 13:05 193 1 gusting 2
2020-Aug-06 13:00 191 2 gusting 3
2020-Aug-06 12:55 230 1 gusting 2
2020-Aug-06 12:50 215 0 gusting 0
2020-Aug-06 12:45 241 1 gusting 1
2020-Aug-06 12:40 261 1 gusting 3
2020-Aug-06 12:35 342 1 gusting 4
2020-Aug-06 12:30 354 1 gusting 4
2020-Aug-06 12:25 338 2 gusting 6
2020-Aug-06 12:20 005 3 gusting 8
2020-Aug-06 12:15 043 3 gusting 6
2020-Aug-06 12:10 045 1 gusting 3
2020-Aug-06 12:05 337 1 gusting 6
2020-Aug-06 12:00 332 5 gusting 11
2020-Aug-06 11:55 318 11 gusting 20
2020-Aug-06 11:50 294 7 gusting 16
2020-Aug-06 11:45 296 8 gusting 16
2020-Aug-06 11:40 269 4 gusting 14
2020-Aug-06 11:35 222 0 gusting 1
2020-Aug-06 11:30 206 0 gusting 2
2020-Aug-06 11:25 173 0 gusting 1
2020-Aug-06 11:20 194 0 gusting 1
2020-Aug-06 11:15 146 0 gusting 1
2020-Aug-06 11:10 068 0 gusting 1
2020-Aug-06 11:05 005 0 gusting 1
2020-Aug-06 11:00 347 0 gusting 1